471  
FPUS83 KFGF 302031  
OPUFGF  
PRAIRIE TO PINES WEATHER ROUNDUP  
NATIONAL WEATHER SERVICE EASTERN NORTH DAKOTA/GRAND FORKS ND  
300 PM CDT SUN APR 30 2017  
 
**SATELLITE DATA USED TO AUGMENT SKY COVER AT AUTOMATED STATIONS**  
***** WEATHER ACROSS EASTERN NORTH DAKOTA *****  
 
CITY SKY/WX TMP DP RH WIND PRES REMARKS  
GRAND FORKS FAIR 63 27 25 E14G22 29.97F  
GRAND FORKS AF FAIR 61 27 27 E13G22 29.98F  
GRAND CITY NWS NOT AVBL  
BUXTON N/A 62 28 27 NE10G22 N/A  
DEVILS LAKE FAIR 59 26 28 SE12 29.97F  
FARGO FAIR 61 19 19 NE12G23 29.92F  
WAHPETON ARPT FAIR 55 19 24 E20G25 29.91S  

 
 
***** WEATHER ACROSS CENTRAL AND WESTERN NORTH DAKOTA *****  
 
CITY SKY/WX TMP DP RH WIND PRES REMARKS  
JAMESTOWN FAIR 61 25 25 E16G22 29.93F  
BISMARCK FAIR 63 24 22 SE10 29.94F  
MINOT PTSUNNY 67 22 18 S8G17 29.91F  
MINOT AFB FAIR 67 24 19 S13G22 29.89F  
GARRISON N/A 62 20 19 SW6 29.92F  
WILLISTON FAIR 68 20 16 S10 29.87F  
DICKINSON FAIR 61 14 16 S9 29.90F  
HETTINGER FAIR 61 22 22 E6 29.94F  

 
 
***** OTHER OBSERVATIONS NORTHEAST NORTH DAKOTA *****  
 
CITY SKY/WX TMP DP RH WIND PRES REMARKS  
WALHALLA NOT AVBL  
LANGDON FAIR 66 23 19 S12G21 29.97S  
CAVALIER FAIR 63 28 27 SE9G16 29.97F  
GRAFTON FAIR 63 28 27 E13 30.00F  
CANDO NOT AVBL  
FORT TOTTEN N/A 63 26 24 E7 29.95S  
ROLLA FAIR 63 23 22 S10 29.95S  
RUGBY NOT AVBL  
***** THE ABOVE OBSERVATIONS ARE NON NWS ARE NOT QUALITY  
CONTROLLED AND MAY MIS-REPORT RAIN FOR SNOW...  

 
 
***** OTHER OBSERVATIONS SOUTHEAST NORTH DAKOTA *****  
 
CITY SKY/WX TMP DP RH WIND PRES REMARKS  
COOPERSTOWN FAIR 61 28 29 E14G23 29.95F  
VALLEY CITY FAIR 59 19 21 E15G28 29.94F  
OAKES NOT AVBL  
GWINNER CLEAR 59 21 23 MISG 29.90F  
SHEYENNE NWR N/A 58 18 21 E14 29.95S  
BUFFALO N/A 62 16 17 SW12G25 N/A  
WYNDMERE N/A 59 23 25 E17 N/A  
***** THE ABOVE OBSERVATIONS ARE NON NWS ARE NOT QUALITY  
CONTROLLED AND MAY MIS-REPORT RAIN FOR SNOW...  

 
 
***** WEATHER ACROSS NORTHERN MINNESOTA *****  
 
CITY SKY/WX TMP DP RH WIND PRES REMARKS  
FLAG ISLAND FAIR 52 23 32 S3 30.03F  
WARROAD FAIR 54 30 40 NE13 30.02F  
ROSEAU FAIR 61 27 27 NE16G22 30.00F  
HALLOCK FAIR 64 19 17 E10G16 29.99F  
THF RVR FALLS FAIR 58 24 27 E12G23 29.99  
HALSTAD N/A 61 21 22 E13 N/A  
FOSSTON FAIR 63 19 19 E10G18 29.94F  
BAUDETTE FAIR 59 20 22 E15 30.02F  
WASKISH PTSUNNY 61 25 25 E12G21 29.98F  
CROOKSTON FAIR 61 23 23 NE13G21 29.96F  

 
***** WEATHER ACROSS CENTRAL AND WEST MINNESOTA *****  
 
CITY SKY/WX TMP DP RH WIND PRES REMARKS  
BEMIDJI FAIR 55 22 27 SE14G20 29.96F  
PARK RAPIDS FAIR 56 19 23 E20G25 29.94F  
WADENA FAIR 54 27 35 E21G28 29.92F  
DETROIT LAKES FAIR 54 21 28 E18 29.93F  
MOORHEAD FAIR 61 18 18 E13G18 29.92F  
FERGUS FALLS FAIR 54 25 32 E15G23 29.90F  
ELBOW LAKE FAIR 52 25 35 E13G23 29.90F  
MORRIS MN FAIR 54 27 35 E22G28 29.88F  
STAPLES FAIR 52 21 30 NE12G21 29.92F  
WHEATON NOT AVBL  

 
***** WEATHER ELSEWHERE ACROSS MINNESOTA *****  
 
CITY SKY/WX TMP DP RH WIND PRES REMARKS  
DULUTH PTSUNNY 47 26 44 E21G28 30.03F  
INTRNTL FALLS FAIR 55 22 27 E8 30.04F  
ELY FAIR 52 16 24 NE7 30.03F  
CLOQUET FAIR 45 27 49 E12G20 30.01F  
BRAINERD PTSUNNY 51 24 34 E15G25 29.96F  
HIBBING PTSUNNY 51 21 30 E12G22 30.02F  
ALEXANDRIA FAIR 50 26 39 E25G35 29.90F  
SAINT CLOUD CLOUDY 48 31 51 NE16G28 29.91F  
MINNEAPOLIS CLOUDY 45 34 65 NE23G30 29.88F  

 
 
***** WEATHER ACROSS SOUTH DAKOTA *****  
 
CITY SKY/WX TMP DP RH WIND PRES REMARKS  
SIOUX FALLS LGT RAIN 42 42 100 NE23G36 29.74F FOG  
BROOKINGS LGT RAIN 42 32 67 NE20G28 29.82S  
WATERTOWN CLOUDY 47 23 38 NE16G25 29.85F  
HURON CLOUDY 51 23 33 NE20G28 29.83F  
SISSETON N/A 56 22 26 E15G26 29.88F  
ABERDEEN FAIR 57 15 19 NE22G28 29.89F  
MITCHELL LGT RAIN 41 33 73 NE20G31 29.83F  
PIERRE FAIR 58 23 26 NE15G24 29.87F  
MOBRIDGE FAIR 63 21 20 E13G21 29.88F  
RAPID CITY FAIR 59 24 26 N13G20 29.91F  

 
 
***** SOME WEATHER IN NEARBY STATES *****  
 
CITY SKY/WX TMP DP RH WIND PRES REMARKS  
GLASGOW MT FAIR 63 31 30 W14G24 29.82F  
GREAT FALLS MT FAIR 58 32 37 W22G31 29.88F  
CHEYENNE WY FAIR 51 16 24 N32G39 29.89F  
SCOTTSBLUFF NE FAIR 54 23 30 N24 29.89F  
OMAHA NE LGT RAIN 44 40 85 N10 29.61S FOG  
DES MOINES IA CLOUDY 45 42 89 E16G29 29.59F  
DAVENPORT IA CLOUDY 47 45 93 E17 29.71F  
CHICAGO IL DRIZZLE 45 42 89 NE14 29.81F FOG  
EAU CLAIRE WI CLOUDY 50 35 56 NE15G23 29.88F  
LA CROSSE WI CLOUDY 46 39 76 NE14G23 29.85F  

 
 
***** SOME NATIONAL WEATHER *****  
 
CITY SKY/WX TMP DP RH WIND PRES REMARKS  
LA GUARDIA NY CLOUDY 60 38 43 SE13 30.22F  
RALEIGH NC PTSUNNY 85 66 53 SW14 30.13F  
ATLANTA GA PTSUNNY 82 62 50 S13 30.06F  
NEW ORLEANS LA CLOUDY 73 71 93 S7 29.82R  
OKLAHOMA CITY LGT RAIN 49 39 68 SW25G36 29.56R  
ALBUQUERQUE NM FAIR 60 12 15 NW25G37 30.02F  
SALT LAKE CITY CLOUDY 59 27 29 S3 30.12F  
LOS ANGELES CA FAIR 73 45 36 SW13 30.07F  
BOISE ID CLOUDY 62 37 39 N9 30.11F  
SEATTLE WA PTSUNNY 53 42 66 CALM 30.29S  

 
 
*** WEATHER ACROSS MANITOBA...SASKATCHEWAN AND ONTARIO ***  
***ONTARIO***  
 
CITY SKY/WX TMP DP RH WIND PRES REMARKS  
GERALDTON PTSUNNY 50 10 20 NE7 30.14F  
THUNDER BAY CLOUDY 46 25 42 E8 30.13F  
SIOUX LOOKOUT PTSUNNY 54 16 22 SE5 30.09F  
TORONTO CLOUDY 43 34 70 E16G23 30.04F  
BIG TROUT LK MOSUNNY 50 23 34 S12 30.02S  
PICKLE LAKE CLOUDY 52 16 24 S7 30.11F  
DRYDEN CLOUDY 54 16 22 SE5 30.07F  
KENORA MOSUNNY 57 21 24 SE9 30.05F  

 
*** MANITOBA***  
 
CITY SKY/WX TMP DP RH WIND PRES REMARKS  
BRANDON PTSUNNY 66 25 20 SW10 29.90F  
DAUPHIN LGT RAIN 61 34 36 SW14G20 29.90F  
ISLAND LAKE PTSUNNY 57 28 33 NW7 30.00F  
PILOT MOUND N/A 64 21 19 S12G18 N/A  
THE PAS MOSUNNY 57 34 41 NE7 29.93F  
THOMPSON MOSUNNY 52 23 32 VRB5 29.99F  
WINNIPEG MOSUNNY 66 23 19 S15 29.97F  
LYNN LAKE SUNNY 50 21 32 S5 29.97F  
CHURCHILL PTSUNNY 46 27 46 W13 29.99F  
GILLAM SUNNY 54 25 32 N5 30.03S  

 
***SASKATCHEWAN***  
 
CITY SKY/WX TMP DP RH WIND PRES REMARKS  
ESTEVAN MOSUNNY 64 25 22 S7G18 29.85F  
KINDERSLEY PTSUNNY 57 34 41 S14 29.74F  
LLOYDMINSTER CLOUDY 54 36 50 E9 29.78S  
PRINCE ALBERT PTSUNNY 61 34 36 SE13 29.84F  
REGINA CLOUDY 63 36 36 NW6 29.79F  
YORKTON MOSUNNY 57 41 54 NE10 29.84F  
 
CLICK HERE TO GO TO PREVIOUS BULLETINS.

The Nexlab ND Page
The Nexlab MN Page Main Text Page